Theta_e
316 307 302 303 305 309 311 311 310 309 309 309 312 312 310 311 311 315 317 319 321 317 316 317 319 319 318 321 323 322 325 325 323 323 323 325 326 328 329 329 330 330 331 335 340 341 342 345 349 349 349 350 350 352 352 351 350 350 350 350 348 350 350 350 347 346 344 339 335 335 334 334 335 335 335 335 336 336 334 332 332 334 332 329 329 328
314 305 304 307 308 310 310 311 310 308 307 305 303 304 303 310 308 314 316 320 320 316 313 316 316 316 316 319 323 322 321 322 322 322 321 322 325 326 327 328 328 329 332 332 336 340 342 344 347 349 349 351 349 350 351 349 349 349 350 349 348 349 350 349 347 346 344 342 336 334 334 334 335 335 333 331 331 332 332 330 328 330 330 328 327 329
304 302 306 310 312 311 310 309 309 307 307 305 301 299 299 300 302 304 314 319 319 317 312 313 312 312 313 318 323 321 320 323 324 323 323 321 323 324 326 327 328 328 328 330 334 339 341 343 345 348 349 350 351 350 350 350 349 349 349 348 349 349 349 349 348 347 344 344 341 338 336 336 334 335 334 333 333 331 328 327 327 327 326 325 324 325
300 302 307 311 311 310 309 309 307 306 306 301 300 300 298 301 301 296 301 313 317 316 311 312 311 312 314 317 321 323 321 321 324 324 324 324 322 324 325 327 327 327 327 328 333 337 340 342 344 346 347 349 350 350 349 349 348 349 350 348 348 349 349 348 349 349 346 346 343 340 338 337 335 333 335 331 331 329 328 327 327 326 325 324 323 325
302 306 309 309 309 308 306 306 304 302 300 303 304 299 298 300 301 301 298 303 313 316 310 309 310 308 312 312 316 320 322 321 322 323 323 324 325 326 327 327 328 327 328 328 333 336 339 341 343 344 346 348 349 349 349 349 348 349 348 349 349 349 348 349 351 349 347 345 338 337 337 337 335 333 330 328 327 329 331 326 323 323 324 324 324 324
302 307 309 306 306 305 303 302 303 303 299 297 300 303 303 303 302 301 301 301 295 295 304 303 294 297 308 313 315 318 318 319 320 320 321 324 325 324 325 326 327 329 329 329 333 335 338 341 343 344 345 346 348 349 349 350 350 349 349 349 349 349 349 349 350 349 344 339 335 334 332 330 329 326 325 324 325 325 323 323 326 325 324 325 323 323
301 305 306 305 305 305 304 301 304 305 299 301 300 304 305 304 302 300 299 299 293 294 300 304 296 289 300 312 314 315 317 317 319 320 322 323 324 324 325 326 326 327 327 329 334 336 337 340 343 344 344 346 347 349 350 351 350 350 349 349 349 349 349 349 350 347 342 336 335 334 332 331 329 326 327 328 326 324 324 325 322 322 324 323 323 324
303 303 301 302 302 302 300 298 301 303 300 297 302 305 305 303 300 300 301 300 295 300 301 302 297 293 293 306 316 317 315 316 317 319 321 322 323 324 325 326 327 327 328 328 330 335 337 340 343 343 345 346 347 349 349 350 350 349 349 349 349 350 350 349 350 344 340 335 334 333 333 333 330 330 328 327 325 325 325 322 322 322 321 322 323 323
302 301 301 300 300 298 296 300 301 305 300 299 302 304 304 304 303 302 299 297 298 298 294 294 302 294 293 296 312 316 313 314 316 318 320 322 323 324 325 326 327 328 329 329 329 332 337 339 342 346 346 348 348 349 348 350 350 350 350 350 350 349 349 349 349 343 339 338 335 334 334 333 333 330 329 329 328 324 325 321 321 320 320 322 323 323
304 304 303 302 300 297 301 302 302 304 301 303 305 304 302 303 303 301 298 297 295 294 291 296 297 293 289 297 311 314 314 313 316 318 320 321 323 324 325 326 327 327 328 330 330 331 335 341 343 347 348 348 349 349 350 351 351 350 350 349 349 348 348 348 346 343 340 339 339 336 335 332 331 331 329 327 324 322 322 321 321 321 321 321 321 323
304 312 315 308 303 303 301 303 305 306 306 306 300 299 298 298 297 298 296 298 292 291 292 297 299 296 289 294 309 310 313 316 318 319 320 321 323 324 326 326 327 327 328 329 329 331 332 340 344 347 347 348 349 349 349 350 350 350 349 349 348 348 348 348 345 342 340 340 339 337 334 332 330 329 328 324 322 322 321 319 319 318 319 320 320 322
304 305 304 305 310 309 306 304 307 306 305 305 299 296 293 295 297 295 294 294 292 285 293 297 297 298 290 294 305 316 319 320 319 318 319 320 322 324 325 326 327 327 328 330 330 330 332 336 342 347 346 348 349 349 349 349 350 349 349 349 348 347 347 346 344 342 341 341 339 336 334 332 331 329 326 323 321 322 320 318 317 317 318 319 321 319
299 301 304 305 311 307 304 303 300 302 301 302 297 294 292 288 289 286 290 289 288 287 294 295 299 299 299 303 308 313 317 320 322 322 321 322 322 324 325 327 328 328 329 330 330 331 333 334 340 344 345 347 348 348 349 349 349 349 349 348 347 346 346 345 343 343 341 341 338 336 334 333 332 329 327 325 323 323 321 318 316 317 317 319 318 317
296 300 301 302 305 308 305 298 295 298 300 303 298 291 290 289 288 284 285 289 288 293 297 297 304 298 303 304 308 310 317 322 323 324 324 324 323 324 325 326 327 328 330 331 331 332 334 335 339 345 345 347 347 348 348 349 349 349 349 348 347 345 345 344 343 342 342 342 339 337 335 333 332 330 329 327 325 322 321 320 319 319 318 318 317 318
291 293 297 301 298 304 305 304 302 297 296 299 297 297 292 289 289 285 287 287 288 290 293 297 297 296 297 300 312 315 318 320 324 326 325 325 324 324 325 326 326 328 329 331 331 332 334 336 338 344 346 347 347 348 348 349 349 349 348 347 347 345 344 342 342 342 341 341 339 337 335 334 333 331 331 328 323 319 319 320 320 320 318 317 317 318
296 294 299 304 304 304 304 307 306 303 300 298 300 298 293 294 295 291 289 289 289 290 290 296 296 300 302 310 317 322 326 327 328 326 330 325 326 327 328 327 327 329 330 331 332 333 333 337 338 342 346 347 348 347 346 349 349 349 348 348 347 344 342 342 342 341 341 341 339 337 336 336 336 335 332 328 326 321 321 321 320 319 318 317 317 319
296 292 298 302 305 303 305 307 306 306 294 297 299 293 297 299 299 295 297 299 298 290 290 298 302 308 308 315 315 319 322 324 328 331 331 331 330 326 327 328 329 330 330 331 332 333 334 336 340 342 346 346 342 341 344 347 349 348 346 344 343 342 343 342 342 341 341 340 338 337 337 337 335 334 328 325 323 322 322 322 321 319 319 321 321 321
293 294 300 303 301 306 304 309 307 309 303 297 295 297 301 301 300 295 289 289 288 287 291 301 299 301 298 300 311 315 316 322 328 331 334 333 333 331 332 329 331 332 333 334 334 335 337 339 343 345 344 341 339 341 343 345 346 346 346 344 343 342 342 341 341 340 340 339 337 337 337 338 336 331 327 325 325 324 322 321 320 320 321 321 321 321
300 293 297 300 303 304 306 307 303 304 306 302 301 302 300 291 292 291 293 287 288 287 292 299 303 306 302 302 311 314 314 320 323 328 331 333 334 335 336 336 335 337 337 335 336 338 339 342 343 339 337 340 340 341 344 346 347 346 346 345 344 343 343 342 341 341 341 340 338 338 338 339 333 328 328 329 327 323 321 319 319 320 320 321 322 323
301 294 295 300 304 304 300 300 295 299 302 305 304 301 300 296 292 295 292 290 292 288 292 294 302 298 310 308 316 316 318 319 324 329 331 334 335 336 337 338 339 338 340 341 341 340 341 340 338 337 337 337 337 338 340 344 346 346 345 345 344 344 343 342 341 341 339 339 339 339 339 337 333 328 329 325 324 321 320 319 320 321 320 320 323 319
298 299 290 296 301 302 295 300 296 296 297 299 299 294 297 299 298 295 296 295 291 287 286 292 294 300 308 315 318 320 321 323 327 330 331 333 334 336 337 338 340 343 342 340 338 336 336 335 336 337 337 337 337 339 340 341 343 344 344 344 344 343 341 340 340 340 339 339 339 339 337 333 328 328 328 325 324 321 321 321 322 320 320 320 317 318
301 301 294 295 296 295 296 299 301 300 298 296 298 296 298 295 295 292 289 295 295 292 289 294 292 300 312 325 324 321 323 327 331 334 333 334 334 335 337 341 342 342 339 336 335 335 334 333 334 336 336 336 336 336 337 337 340 342 343 343 343 342 341 340 339 339 339 339 339 338 335 329 327 327 326 324 324 322 321 321 320 320 320 318 319 318
302 298 299 293 295 298 301 305 306 306 305 300 301 298 299 294 293 289 286 287 293 296 303 302 299 301 312 323 326 327 329 331 333 336 333 334 334 335 338 342 342 340 338 336 335 335 333 333 333 333 334 335 335 335 334 335 337 340 341 341 341 340 340 341 340 339 339 338 337 333 330 327 327 327 325 323 322 322 321 321 321 322 320 319 319 319
335 298 295 296 299 302 303 304 306 306 305 301 300 302 298 296 296 295 294 291 292 298 299 299 298 300 312 323 328 327 331 331 335 336 334 334 334 336 338 341 341 337 336 336 335 334 333 333 333 332 332 334 335 335 335 335 337 339 340 339 340 340 340 339 339 339 339 337 333 331 329 327 327 326 321 321 321 321 321 321 321 321 319 318 318 317
299 298 296 293 289 293 296 299 301 304 302 299 298 297 299 299 300 299 297 297 294 294 300 298 294 301 313 329 326 328 330 331 333 337 336 333 333 335 338 339 339 336 331 330 332 333 332 331 331 330 330 332 334 335 335 335 337 339 338 338 338 339 340 339 339 337 334 331 329 329 328 328 326 323 320 320 320 320 321 320 319 321 319 318 318 319
299 300 297 290 290 287 287 288 290 294 297 300 302 302 301 302 300 298 294 296 290 302 306 301 301 305 315 324 324 325 327 329 334 335 335 334 332 332 334 335 333 332 330 329 331 331 330 331 331 331 331 333 334 334 334 335 336 337 338 337 339 339 338 339 339 335 331 330 329 328 327 327 323 321 319 319 320 320 320 319 319 320 320 320 319 318
303 306 299 294 291 291 293 296 301 305 299 298 301 303 304 305 303 299 295 296 297 303 304 306 308 311 315 320 322 322 326 330 331 331 330 329 329 329 330 330 330 330 331 331 331 330 331 330 330 331 331 331 332 333 334 334 335 337 336 336 338 338 337 337 336 333 330 330 328 328 327 326 322 320 320 320 320 320 319 319 320 320 320 321 319 318
302 299 300 300 299 299 299 300 303 305 299 301 301 303 305 304 304 298 296 302 308 306 300 308 312 311 312 318 319 323 328 329 330 330 329 327 328 328 329 331 333 330 332 333 331 330 329 329 330 330 330 330 331 332 332 333 334 335 335 334 335 336 336 336 334 332 331 330 329 327 327 322 321 321 320 319 319 318 318 320 320 320 320 321 319 319
299 297 300 302 300 300 301 301 302 302 302 302 303 304 303 303 308 307 308 313 308 303 302 309 312 312 313 317 323 326 329 330 331 330 330 329 329 328 327 329 329 328 331 331 331 331 330 329 330 330 330 330 331 332 332 333 333 333 333 334 334 335 335 335 333 332 331 329 327 324 322 321 322 321 322 320 318 318 319 320 319 320 320 319 319 322
302 299 300 303 301 301 301 302 303 302 302 303 303 303 308 311 310 310 311 313 311 308 311 314 312 315 319 321 324 328 331 331 330 329 328 327 327 327 326 326 327 328 329 331 332 331 330 329 329 329 330 330 330 330 332 332 332 332 332 332 333 333 333 333 330 329 328 325 324 322 322 323 323 321 320 319 318 319 319 319 319 319 318 317 318 321
302 298 318 302 298 298 301 304 303 302 301 301 302 303 311 312 313 314 315 315 316 314 317 318 317 315 322 326 329 331 330 330 329 328 325 325 326 327 324 325 327 329 329 331 334 331 330 329 329 329 329 330 331 331 332 332 332 331 331 331 331 331 331 329 327 326 324 323 322 322 323 323 321 319 319 319 319 319 319 318 319 318 317 318 319 320
302 300 302 300 297 294 299 301 302 302 302 301 301 304 311 312 310 312 312 315 312 312 314 313 310 311 319 328 330 330 330 328 327 326 324 324 326 325 323 324 324 325 329 333 335 332 330 329 328 328 328 328 330 331 331 331 330 330 329 330 330 330 328 327 325 324 323 323 322 322 322 321 319 319 319 320 319 319 318 318 317 316 315 317 320 322
303 302 298 296 294 293 298 300 300 301 300 299 299 305 308 310 312 311 313 317 316 317 309 304 305 313 324 329 327 327 329 328 326 326 324 325 324 325 323 324 325 326 329 335 335 332 330 329 329 329 328 329 330 331 331 330 329 329 329 329 329 329 327 325 324 323 324 323 322 321 322 320 319 319 319 320 319 319 318 317 317 316 315 315 320 321
304 302 299 302 297 294 300 301 301 296 292 293 303 306 310 309 308 308 309 313 317 316 311 312 312 318 325 326 327 326 327 327 328 329 329 327 326 325 326 326 327 327 329 335 337 334 331 330 329 329 329 329 330 331 331 331 330 330 330 329 329 327 326 324 324 324 324 322 321 321 321 320 319 319 319 320 319 318 316 317 316 315 316 317 319 317
302 301 300 303 299 294 298 299 295 289 291 304 308 309 313 313 312 311 311 313 316 320 320 319 320 323 325 326 326 327 328 329 331 331 331 330 328 327 327 328 329 329 329 335 335 333 332 330 329 328 329 329 330 330 330 330 330 329 328 328 327 327 325 324 324 323 322 322 321 321 320 319 319 319 319 319 318 317 316 316 315 317 318 319 318 317
300 300 300 299 299 296 295 293 288 290 300 309 311 313 316 315 315 315 312 314 318 320 321 320 321 322 323 323 325 326 328 330 332 333 332 332 331 329 328 328 330 332 332 337 336 333 331 329 328 328 328 332 330 329 329 329 329 328 327 327 326 325 324 324 323 322 322 321 321 321 320 320 319 320 318 318 317 316 316 315 315 315 318 318 318 320
305 303 302 295 299 294 294 295 294 301 301 305 309 307 307 304 307 311 306 311 318 322 324 322 323 323 324 324 326 328 329 328 325 326 333 334 334 334 334 333 334 337 337 338 337 334 332 331 329 329 331 330 329 329 329 329 328 327 326 325 325 324 324 323 322 322 323 321 321 321 320 320 320 319 317 317 317 314 315 316 315 317 321 316 316 316
303 302 297 298 296 299 295 291 292 292 293 297 305 311 313 312 313 317 315 311 322 326 327 325 323 323 324 324 326 328 324 316 316 319 328 335 336 335 338 339 339 340 339 337 336 334 332 331 330 331 330 329 329 329 329 329 327 326 325 324 324 323 322 322 321 322 322 321 321 321 320 320 320 320 319 316 316 315 315 316 314 315 322 317 317 318
304 304 301 298 295 296 296 293 291 292 295 302 306 310 314 318 319 318 312 306 313 324 328 327 325 325 325 325 325 325 317 310 309 313 323 335 335 336 336 337 339 339 337 336 334 332 332 331 331 331 330 329 328 329 329 328 326 325 324 324 323 322 322 321 321 322 322 322 322 321 321 321 321 320 318 317 316 317 317 316 317 320 319 318 318 320
301 300 302 301 297 297 295 293 290 296 299 307 309 310 312 318 314 309 299 302 310 323 328 328 326 326 326 326 325 320 316 309 312 318 331 335 335 335 336 337 337 336 335 335 335 334 333 334 332 329 328 328 328 329 328 327 325 325 324 324 323 322 321 322 322 322 323 323 322 322 321 321 322 320 319 316 315 316 318 319 318 316 318 317 317 319
298 298 298 295 295 297 301 294 295 299 308 314 313 313 314 319 313 299 295 306 316 325 329 328 328 327 326 325 324 320 321 319 321 329 335 336 338 338 339 338 337 336 335 335 335 337 333 332 331 329 329 329 330 329 328 326 325 324 324 323 322 321 323 323 323 323 323 323 322 322 321 321 320 320 319 319 317 317 322 319 316 314 316 316 316 316
297 300 299 299 294 295 293 293 294 297 304 311 313 315 317 311 302 301 309 315 322 326 329 329 327 327 327 326 325 321 325 330 334 334 334 335 337 337 338 337 336 336 337 338 337 334 333 332 332 331 331 330 330 329 328 326 325 325 324 322 322 323 324 324 323 323 322 322 322 322 321 320 320 321 320 320 320 319 319 318 317 315 314 315 316 315
296 297 293 295 297 297 298 295 296 292 307 316 316 312 317 308 309 313 319 324 326 327 328 327 328 326 328 327 329 329 330 330 332 333 333 335 336 336 336 335 334 334 334 334 334 335 333 331 331 331 331 331 331 330 328 327 326 325 324 322 323 325 325 324 323 323 322 322 321 322 321 322 323 323 321 321 321 318 318 318 317 316 315 314 315 315
304 299 296 298 299 292 295 293 293 299 305 317 312 305 311 316 317 322 321 321 326 327 326 325 325 328 329 329 330 330 330 330 331 333 334 335 335 335 335 335 335 335 335 335 335 335 335 331 331 332 332 331 331 331 330 328 327 326 324 323 326 326 326 324 323 322 322 323 322 321 321 323 323 322 322 322 321 319 318 316 316 317 318 315 316 315
307 306 305 300 306 306 302 300 308 311 317 318 318 317 319 322 320 320 323 322 322 324 326 326 327 330 330 331 332 332 330 331 331 334 335 335 335 334 334 335 335 334 334 334 334 336 334 332 331 332 332 332 332 333 331 330 329 327 324 325 328 327 325 324 323 323 322 322 322 323 321 322 321 321 321 322 322 319 318 316 315 315 315 316 314 314
312 316 315 311 312 316 315 313 317 316 317 318 322 324 323 322 322 324 324 323 325 327 329 328 331 332 333 334 332 331 333 333 332 332 335 337 336 335 335 335 336 336 336 335 335 335 334 333 332 331 331 332 333 333 333 332 331 328 326 328 329 327 326 324 323 323 323 322 322 322 322 320 320 320 321 321 320 320 319 319 318 315 314 314 313 313
314 314 314 310 313 305 302 308 315 315 318 320 322 323 324 325 324 323 322 323 325 328 329 333 334 335 335 334 333 332 333 334 332 332 335 337 337 336 335 335 336 336 336 335 335 336 333 333 331 330 331 331 332 333 334 333 331 330 329 330 330 328 326 325 324 325 324 323 322 321 321 319 320 320 321 321 320 320 321 319 317 317 319 315 313 313
309 317 309 310 311 304 307 315 318 319 320 322 322 322 321 323 323 324 324 324 326 329 333 335 337 336 336 334 334 333 334 334 332 331 333 336 337 337 336 336 336 336 336 336 336 336 334 332 331 331 331 330 331 333 334 335 333 332 331 332 331 329 327 326 325 325 325 324 323 322 320 321 329 324 320 320 319 318 317 317 319 317 318 317 315 314
312 317 306 309 310 313 315 318 320 322 321 322 322 321 322 322 323 325 325 326 329 330 332 335 337 336 336 335 334 334 333 332 332 333 333 334 336 337 337 337 337 336 335 334 334 335 333 332 332 331 331 331 332 333 333 335 335 333 332 333 332 330 327 326 326 327 325 324 324 324 325 323 327 322 320 319 320 318 318 317 318 318 318 319 318 318
313 307 310 308 308 308 310 313 318 313 312 319 322 323 323 324 326 326 325 326 327 328 330 332 333 335 336 336 334 334 332 331 332 333 334 334 335 336 336 336 337 336 335 336 335 334 334 333 332 332 331 331 333 334 334 335 335 334 332 333 332 330 328 327 326 326 325 324 325 326 326 323 324 323 323 320 319 318 318 326 322 318 319 318 330 327
311 313 313 306 308 308 314 318 319 319 319 321 323 325 324 326 326 324 323 324 325 328 329 330 330 329 332 334 335 334 332 332 333 335 335 334 334 333 334 336 336 336 335 336 334 333 333 332 333 332 331 331 333 334 335 335 335 334 332 332 333 331 329 328 326 325 325 326 325 326 327 325 324 324 323 321 319 317 318 317 319 310 311 318 327 321
Wind_Speed
1 3 4 8 8 10 12 10 8 8 10 10 8 8 10 11 9 7 9 7 14 8 12 14 16 11 9 9 14 15 16 13 11 12 11 12 12 13 13 14 15 14 14 12 14 15 15 13 12 11 11 11 12 12 13 12 12 12 11 11 10 9 8 8 7 6 6 8 8 8 9 9 7 7 5 5 4 5 4 3 4 4 5 4 4 4
1 2 8 10 11 11 12 15 11 8 5 5 3 6 8 9 10 10 10 11 11 12 11 12 10 9 8 9 12 9 12 16 15 14 13 13 13 13 16 16 16 15 8 9 11 13 14 11 12 11 10 11 14 12 13 14 13 12 11 11 10 8 9 8 8 7 6 6 8 8 8 8 7 7 7 6 5 5 4 5 5 5 4 4 3 3
3 7 10 12 12 10 11 10 9 9 10 6 3 2 4 5 6 5 7 8 9 10 9 7 11 11 8 12 12 13 15 17 17 16 18 16 14 13 14 17 14 10 10 10 12 13 12 13 13 11 11 11 14 15 15 13 13 11 10 10 9 9 9 8 7 6 6 4 6 7 7 9 5 3 5 6 5 5 6 5 6 5 4 3 3 3
5 6 14 13 11 12 12 11 10 11 7 7 6 3 3 5 3 6 6 8 8 10 7 7 9 7 5 10 15 14 14 14 13 15 16 13 14 15 16 16 15 15 14 13 13 15 13 13 13 11 11 11 10 11 11 12 12 10 9 10 10 9 8 8 7 7 4 5 4 8 9 7 7 6 6 6 6 5 6 6 5 5 4 3 3 3
9 12 7 7 8 7 10 10 8 9 7 6 5 3 3 3 3 3 6 2 8 9 4 4 1 4 3 7 8 9 15 8 6 7 10 11 11 13 9 10 15 18 16 14 12 12 13 13 14 14 12 10 11 11 12 12 11 9 12 12 12 10 10 8 8 8 5 5 7 8 7 7 9 7 5 6 5 4 4 5 5 5 4 4 2 1
10 14 9 9 11 8 5 8 10 5 7 5 5 6 5 3 5 4 2 3 6 2 4 4 1 3 3 10 15 13 8 8 5 9 15 15 11 7 8 13 11 11 13 15 15 15 16 16 13 12 12 13 11 11 11 12 12 12 12 12 11 10 9 10 9 8 6 7 9 10 9 9 8 7 6 7 7 5 5 5 3 4 4 3 1 1
8 9 7 13 13 13 10 6 9 4 7 0 5 4 3 1 1 3 5 4 3 3 5 2 3 5 2 6 9 7 12 12 4 10 17 14 10 8 11 10 12 13 11 7 10 13 13 13 13 13 14 14 13 11 10 11 12 13 13 13 12 11 10 10 9 8 7 8 8 10 10 9 9 9 4 3 4 6 5 5 5 5 3 3 2 0
3 5 4 3 6 9 7 9 5 5 1 4 5 2 2 3 4 5 2 1 3 4 5 1 3 3 2 7 10 8 6 8 7 12 15 13 11 11 11 9 10 11 11 11 12 13 14 15 16 16 15 14 14 13 11 11 12 14 14 14 13 10 10 9 8 8 8 9 9 9 9 8 9 9 8 6 5 4 5 6 5 5 4 3 3 2
2 6 5 6 5 2 6 7 6 1 3 4 4 4 0 1 1 1 3 4 2 2 9 6 1 2 4 6 2 10 6 9 12 16 16 14 11 12 11 11 11 10 10 11 11 12 13 14 13 13 14 13 13 13 14 13 12 13 13 13 12 11 10 9 9 9 9 9 9 9 9 8 6 8 8 6 5 6 5 6 4 5 4 4 4 3
3 5 5 5 4 5 7 6 4 6 1 3 2 3 3 1 1 2 2 3 4 3 7 11 3 2 5 6 3 4 8 12 16 18 19 14 14 14 14 13 10 7 5 7 10 10 10 11 12 13 13 13 13 13 13 12 11 12 12 13 13 12 10 9 9 10 9 10 9 9 9 11 9 8 7 6 6 6 5 6 5 4 4 4 3 3
6 8 6 5 5 5 5 6 4 1 3 1 6 3 7 7 5 4 3 1 4 1 9 10 1 3 3 3 7 9 10 17 16 12 9 6 8 12 15 14 9 7 8 7 7 7 7 9 12 13 15 14 13 12 12 12 11 11 11 13 14 12 10 10 10 10 10 9 8 9 10 12 12 11 10 8 7 5 4 5 5 5 5 3 3 5
6 6 6 3 2 2 3 5 2 3 3 1 2 1 3 6 8 4 4 3 1 5 9 10 3 4 4 4 5 12 10 14 14 15 14 13 15 17 14 12 9 7 8 8 7 7 9 10 11 12 13 13 13 12 12 10 10 10 10 11 13 11 11 10 9 10 8 7 8 9 10 11 11 11 10 10 10 8 8 6 7 5 3 2 3 4
7 8 6 8 5 8 4 6 8 5 5 3 3 7 2 3 5 4 3 2 3 5 7 4 3 4 1 4 7 5 4 3 10 14 16 18 17 15 13 13 11 8 7 8 8 8 10 12 13 14 13 12 13 13 13 12 11 10 10 11 11 11 11 10 10 11 8 5 8 10 11 10 10 10 10 10 10 8 8 7 6 5 5 3 3 3
8 6 5 6 6 5 4 5 3 3 2 1 1 3 2 0 0 3 5 1 4 7 7 2 3 4 2 6 4 9 5 12 15 15 15 17 16 15 13 12 10 7 8 9 9 10 11 12 12 14 14 13 12 12 13 11 11 10 9 10 10 10 11 11 8 7 8 5 9 10 10 9 9 9 9 9 9 8 7 7 7 6 5 5 5 5
2 9 8 2 2 4 6 10 10 7 3 7 5 6 7 6 3 3 2 3 5 7 6 5 2 1 1 3 8 7 8 4 8 11 9 10 9 6 5 3 4 5 6 7 9 10 11 12 13 13 12 11 12 13 12 10 10 10 10 10 11 10 8 10 10 11 13 10 11 12 11 10 7 8 8 7 7 8 7 5 6 6 5 6 5 6
7 8 10 5 5 2 6 9 6 4 2 1 2 6 5 6 6 5 7 4 4 2 5 5 1 2 2 3 4 5 7 8 6 4 3 4 4 2 2 3 4 5 5 6 7 8 9 9 9 9 10 11 13 14 12 15 14 13 12 12 12 11 10 12 11 13 13 12 12 13 12 12 8 6 6 6 5 6 7 7 8 7 6 6 6 5
1 4 6 6 4 3 9 4 5 8 4 3 4 4 9 7 7 0 3 3 1 3 2 2 3 2 3 5 6 9 9 9 8 6 6 6 6 2 4 4 4 4 4 5 7 8 8 7 7 9 12 12 12 12 14 14 15 17 16 15 16 17 18 19 18 14 12 12 14 13 13 12 11 9 10 9 8 7 7 8 8 7 6 6 6 6
4 8 5 2 9 7 5 13 9 13 8 5 1 7 1 3 3 4 2 3 2 2 1 2 1 2 2 1 2 5 6 6 5 6 5 6 7 6 5 3 3 2 3 2 1 2 5 6 8 9 8 11 11 9 8 7 9 14 15 16 17 17 19 18 16 13 12 11 12 12 11 9 8 10 10 8 7 6 8 7 7 6 6 6 6 5
5 7 9 5 5 6 6 4 2 3 2 7 6 3 1 2 5 3 2 2 2 1 1 1 2 2 3 3 1 0 1 2 4 5 7 8 7 5 5 6 3 3 5 5 5 5 6 8 8 10 13 13 13 9 5 7 8 9 10 13 16 17 14 15 13 11 10 9 9 10 12 10 9 7 9 8 6 5 8 8 8 7 7 5 4 6
2 3 8 3 2 3 3 2 3 3 6 3 3 4 1 4 4 1 4 4 2 1 3 3 2 3 3 2 2 3 2 2 1 3 3 4 5 5 5 6 7 8 7 7 6 5 7 10 13 14 14 15 13 10 5 4 5 9 11 11 11 13 12 15 15 14 12 11 11 7 6 5 5 10 11 10 10 7 8 8 8 7 6 6 5 6
3 3 4 6 3 3 3 1 2 8 6 3 1 3 2 0 3 3 0 1 3 4 4 5 2 5 5 4 1 1 2 4 1 1 2 2 1 3 6 8 9 10 9 8 5 9 15 16 14 14 14 12 10 8 4 2 7 11 10 11 9 13 15 16 18 16 12 11 8 10 10 9 9 13 12 8 8 9 8 8 8 7 6 4 4 5
1 0 5 5 6 1 3 5 3 3 4 5 9 7 8 2 3 2 8 4 1 1 2 4 3 5 6 1 2 1 0 0 3 2 1 1 4 7 9 11 11 12 10 8 6 8 15 17 14 11 9 9 11 10 6 8 9 9 7 5 4 5 10 15 24 17 16 10 11 9 9 10 9 11 9 7 10 9 9 8 8 7 5 5 4 4
2 3 0 4 3 6 6 7 6 6 7 7 9 6 6 4 6 3 4 5 2 1 5 3 5 3 4 1 2 1 3 3 2 3 2 2 5 7 9 12 14 14 12 9 8 8 12 16 14 11 11 6 7 12 9 8 3 4 4 7 5 6 7 4 4 23 14 19 14 13 11 12 12 11 11 10 9 9 9 8 8 6 6 5 3 4
3 2 1 5 7 6 6 6 6 3 1 2 2 1 3 3 7 8 9 7 3 1 3 2 2 1 3 1 3 4 3 2 1 3 4 3 4 7 10 11 14 14 12 10 8 6 8 13 13 13 10 6 6 9 14 13 2 4 6 9 7 7 6 2 15 11 17 10 11 11 11 12 12 13 11 11 9 10 9 8 7 6 7 5 5 6
1 2 5 2 5 8 10 10 6 9 5 1 4 4 5 6 8 6 2 1 1 2 6 6 3 2 2 1 3 3 3 2 2 0 3 5 3 4 6 9 11 13 10 9 7 8 9 10 11 10 10 9 8 4 3 1 2 7 8 10 8 5 7 8 7 8 10 11 12 11 11 11 10 10 10 10 9 10 9 8 7 6 7 6 5 5
4 1 1 1 0 3 4 4 5 6 8 6 4 6 4 2 3 3 4 1 1 3 4 4 2 5 3 0 2 1 3 3 2 4 4 3 2 1 2 5 9 10 10 10 8 7 6 8 11 11 10 7 7 5 5 4 5 7 9 9 9 8 8 8 8 8 10 11 12 11 11 10 9 10 10 9 10 10 9 8 7 6 6 7 6 4
1 0 2 5 5 5 7 7 5 1 3 5 10 10 8 6 2 5 6 5 5 2 5 1 4 4 1 1 1 1 4 6 5 2 4 2 1 1 0 3 8 10 12 12 10 8 5 8 11 9 7 8 7 6 4 4 5 8 10 10 8 9 7 9 9 9 10 10 10 8 8 9 8 9 8 9 9 9 8 8 7 7 6 5 6 5
2 1 3 5 5 6 6 6 9 6 5 7 12 11 7 1 0 5 5 6 6 10 4 2 1 5 3 1 2 0 1 4 3 3 2 2 4 1 1 3 9 11 11 11 12 11 10 9 9 8 5 8 7 5 2 3 4 7 10 10 8 9 10 9 10 10 9 10 9 9 7 6 8 8 8 8 9 8 8 8 7 7 6 5 6 6
4 2 3 2 2 5 6 8 7 4 4 5 13 13 10 3 10 9 7 11 5 7 9 5 3 4 3 2 4 5 5 6 7 7 6 3 0 1 2 3 4 9 10 13 13 12 13 10 9 8 6 4 7 8 5 6 5 5 7 8 9 9 10 10 10 9 9 9 10 7 5 6 7 8 8 9 8 8 8 8 8 7 6 5 5 3
1 1 2 1 2 5 6 7 6 5 8 10 3 8 5 12 7 12 5 2 4 6 6 8 6 4 4 5 5 4 3 5 2 1 1 2 2 2 3 1 2 6 10 11 13 12 12 12 12 11 10 7 5 7 6 5 6 6 8 8 8 9 9 9 10 9 9 7 6 5 6 7 7 8 8 9 8 8 8 8 7 7 5 4 4 3
3 4 5 1 2 5 7 8 7 6 6 9 8 6 6 10 11 10 11 9 12 9 8 10 9 4 1 2 3 1 3 3 3 3 3 2 3 3 3 3 1 4 7 10 11 13 12 12 11 10 11 10 8 8 7 6 6 7 7 7 8 8 8 9 10 9 9 7 5 6 6 7 8 8 8 7 8 7 8 8 7 6 4 4 4 3
5 2 4 3 2 5 6 5 10 9 7 7 2 4 6 14 11 5 9 6 6 7 5 6 6 3 3 2 3 4 3 4 4 3 3 3 2 2 3 2 2 2 5 8 11 12 12 11 12 11 11 10 8 8 8 7 7 7 8 8 8 7 7 9 9 9 7 6 6 6 7 7 8 8 7 7 8 8 8 7 6 6 5 4 4 2
3 2 3 3 3 4 8 6 8 5 9 10 9 1 4 5 8 4 3 5 8 13 10 7 7 7 8 6 6 2 3 3 2 3 1 2 3 2 2 3 2 2 4 7 11 12 11 10 10 9 8 9 9 8 8 9 9 8 9 9 7 7 8 8 8 8 7 6 7 6 7 7 8 7 7 7 7 6 6 6 5 6 5 5 4 3
2 3 3 0 1 3 8 9 3 7 3 1 6 2 7 10 9 10 6 5 6 4 5 6 6 7 7 7 8 6 5 4 6 6 2 5 5 4 3 3 3 3 3 4 8 10 9 8 7 8 9 9 8 8 8 8 9 8 8 9 8 9 8 9 7 7 6 6 7 7 7 7 7 6 7 7 7 6 5 5 6 5 5 4 4 4
4 3 2 0 1 3 5 7 7 2 4 5 4 2 7 9 10 9 5 4 3 3 8 8 7 8 8 8 8 7 6 4 2 3 3 3 4 6 6 4 5 5 5 5 8 8 9 9 9 9 9 8 8 8 8 6 7 8 8 8 8 7 8 7 7 6 6 7 6 7 7 7 7 6 6 7 7 6 5 5 4 4 4 4 4 4
3 4 2 1 1 1 3 2 1 2 6 5 3 7 6 12 14 15 9 6 3 4 8 6 4 4 5 6 4 4 4 3 2 1 2 3 6 5 5 5 6 6 8 8 10 10 11 12 12 12 10 8 8 8 7 8 7 9 8 7 8 7 7 8 7 7 6 7 6 7 7 8 7 6 5 6 6 7 6 5 5 5 4 3 3 1
2 0 1 4 1 2 1 1 5 4 6 4 2 5 6 5 5 12 6 1 2 2 9 8 7 6 6 4 5 4 3 2 2 1 1 4 5 5 5 5 6 8 8 7 9 10 9 10 11 10 9 9 8 9 8 8 8 9 9 7 7 8 8 8 8 7 7 7 7 7 7 7 7 6 6 5 6 5 5 5 4 3 2 3 2 2
3 3 3 1 4 1 0 4 5 3 2 6 7 7 6 3 10 10 10 1 2 3 9 13 11 8 7 6 6 6 3 4 1 1 3 2 4 3 2 2 5 6 7 8 8 9 9 9 9 9 10 10 9 8 8 8 9 9 9 8 7 8 8 8 8 7 8 8 7 7 7 7 7 6 5 5 5 5 4 3 4 3 3 4 3 1
4 4 5 6 3 3 1 2 3 2 6 7 8 6 2 12 11 7 8 2 3 3 5 12 10 9 10 10 8 5 2 1 4 4 3 4 3 2 5 3 7 8 9 10 13 12 11 10 11 10 9 10 10 9 9 10 10 10 9 8 8 8 8 8 8 7 8 8 7 7 7 6 6 6 6 5 5 5 4 3 4 2 3 4 3 1
6 3 2 2 4 3 3 2 6 3 2 3 5 4 1 7 7 9 5 4 5 5 5 8 11 9 7 6 7 5 6 4 5 5 3 5 4 1 3 8 8 8 8 8 7 10 11 11 11 10 10 10 9 9 11 10 9 9 9 8 8 8 8 8 8 7 7 7 7 6 7 6 6 6 6 6 4 4 5 3 3 4 4 3 4 3
3 4 3 8 8 7 6 4 2 4 3 4 4 4 3 4 7 4 5 8 6 8 6 7 9 9 8 7 5 6 7 6 5 6 6 6 7 6 5 4 7 8 10 10 10 10 10 9 10 11 10 8 9 9 9 9 10 9 8 8 8 8 7 7 7 7 7 7 7 6 7 6 6 6 5 5 5 4 3 3 4 4 4 4 3 2
4 1 2 2 4 8 6 5 8 4 6 3 3 4 3 3 3 6 7 4 11 8 6 7 10 7 9 9 6 4 4 1 7 7 6 5 7 7 8 8 9 7 6 8 11 10 9 8 8 9 8 8 9 8 8 9 9 8 7 7 8 7 6 7 7 7 7 7 7 7 7 6 5 6 6 4 5 4 4 3 4 5 5 4 4 2
5 3 4 6 4 1 2 3 0 2 3 4 2 4 5 6 7 6 4 2 7 9 8 5 9 8 8 5 3 5 4 5 6 7 6 6 8 9 9 10 10 11 11 10 9 8 10 8 8 9 10 9 9 8 8 9 9 8 7 8 7 7 7 7 7 7 7 7 7 6 6 6 6 5 5 4 5 6 5 4 4 4 4 4 3 2
4 2 2 3 4 5 5 5 4 8 4 2 4 3 3 5 7 6 7 7 3 6 8 6 4 6 6 8 7 5 6 7 4 6 6 5 6 7 7 7 7 8 8 8 9 10 9 9 8 8 10 9 8 8 8 8 8 8 8 7 6 7 7 7 7 7 7 6 6 5 5 5 5 5 4 5 5 5 5 4 4 4 4 4 4 3
2 3 5 3 3 1 2 4 2 2 1 1 8 3 4 4 5 6 8 6 6 2 3 7 6 5 7 9 8 9 6 5 7 7 9 8 8 9 9 9 10 11 10 10 9 8 8 10 10 9 9 9 10 8 8 8 8 9 8 6 7 8 8 7 7 7 6 6 5 5 4 4 5 5 5 5 5 5 4 4 4 4 3 4 3 4
6 4 4 2 1 1 1 1 1 3 4 6 5 9 10 5 4 8 9 6 4 6 8 9 8 8 6 8 10 4 7 7 8 5 6 8 8 7 7 7 7 7 8 8 7 8 8 8 9 11 11 10 10 9 7 7 8 9 8 7 8 8 8 8 7 6 6 5 5 5 5 5 4 5 5 5 5 6 5 5 5 5 4 4 5 3
9 5 2 2 3 3 1 8 5 5 3 7 7 4 5 5 5 5 7 7 6 6 6 7 10 9 9 8 9 9 8 8 8 7 7 8 8 9 10 10 9 10 10 10 9 8 8 9 9 10 11 11 10 8 8 7 6 7 7 8 9 9 8 8 8 6 6 6 6 4 5 6 5 5 5 5 5 5 5 4 6 4 4 4 4 3
7 5 9 2 2 3 3 2 3 3 3 3 8 10 6 5 4 3 4 4 5 6 8 8 7 7 7 7 8 10 9 7 9 8 7 8 8 9 9 9 9 7 8 9 9 9 9 10 10 10 10 10 9 9 8 7 6 7 8 8 9 9 9 8 8 8 7 8 6 5 5 6 7 7 5 5 5 5 4 4 4 5 6 6 6 5
9 8 4 1 1 3 4 5 7 8 6 2 4 5 6 7 7 5 6 7 9 8 6 6 8 10 8 8 7 9 9 6 8 9 9 7 8 8 8 8 8 8 8 9 9 10 11 10 10 9 9 9 8 8 8 7 6 8 9 9 9 10 10 9 8 8 7 6 7 7 5 5 4 5 6 5 5 5 6 7 6 6 6 5 6 7
3 4 4 2 3 5 6 6 10 8 2 2 2 4 4 4 7 7 6 7 7 8 7 8 3 3 6 10 10 10 10 6 6 8 9 9 9 8 7 7 7 8 7 7 7 9 9 9 10 9 9 8 8 8 8 8 6 7 8 8 9 10 10 9 9 8 7 7 8 6 6 5 5 5 6 6 6 5 4 6 8 7 7 6 9 12
2 3 9 7 6 4 6 9 5 7 7 4 6 2 3 3 6 8 8 7 6 7 8 9 7 4 4 4 5 10 9 8 7 7 7 7 7 6 7 8 9 7 7 7 7 8 8 8 8 8 8 7 6 7 8 8 9 9 9 8 9 11 10 10 8 7 8 8 7 8 8 7 5 5 6 6 6 6 6 6 5 8 11 9 9 12
Wind_Direction
174 283 267 248 256 259 267 271 246 234 228 231 214 203 209 210 237 230 213 191 185 191 216 210 218 213 214 210 192 191 190 203 201 199 201 196 190 189 194 198 198 196 203 191 189 189 189 180 174 172 168 165 165 163 163 162 162 159 157 155 161 163 157 157 157 158 154 136 128 128 133 132 140 135 130 116 102 90 88 82 68 70 78 72 73 71
38 290 272 256 240 244 256 260 269 285 257 241 251 169 220 207 238 240 220 206 186 184 231 223 228 225 202 218 211 190 179 201 203 199 206 206 194 190 192 199 199 200 194 181 186 188 186 178 173 168 167 161 161 169 164 165 164 160 155 159 158 158 161 164 166 164 160 152 149 145 146 137 142 137 130 118 102 104 96 84 81 88 89 84 80 80
268 240 251 260 264 268 276 300 316 295 290 304 278 282 357 284 232 267 225 195 188 193 250 208 216 229 194 208 211 194 190 202 201 194 203 203 198 192 193 198 198 185 193 188 187 182 181 176 171 170 170 171 168 166 167 165 158 157 155 158 157 162 161 164 166 163 163 149 145 136 142 137 121 97 117 113 118 107 97 88 90 92 91 97 80 67
285 270 250 256 266 277 292 292 293 295 304 292 290 332 260 260 29 316 296 183 165 181 226 209 217 234 200 214 204 204 195 207 207 202 212 208 203 198 193 191 190 192 189 190 181 182 177 172 171 171 173 172 165 164 161 160 161 158 157 158 159 162 161 164 169 168 158 152 129 117 134 126 122 130 110 101 100 95 93 88 92 89 104 100 92 71
214 239 242 244 246 242 256 269 285 290 297 280 252 187 226 295 247 201 272 314 184 215 75 76 238 330 229 192 225 220 210 205 213 221 234 237 224 210 193 194 191 191 190 187 181 176 172 170 174 174 173 169 170 170 167 164 163 164 162 163 162 162 163 166 169 167 151 117 100 112 104 97 94 87 101 106 93 100 104 99 89 110 107 99 101 88
258 258 253 267 274 259 238 265 261 243 273 310 252 199 219 215 292 293 279 37 37 331 222 156 20 276 236 204 200 194 194 212 216 202 225 227 228 212 193 202 205 205 194 183 179 177 177 176 169 167 167 172 174 174 172 169 163 162 162 161 161 160 162 168 171 164 140 139 133 134 133 132 129 131 139 141 146 139 132 133 141 102 103 116 120 167
220 239 221 233 239 253 263 255 261 233 240 93 270 261 277 228 248 328 348 43 2 312 272 112 232 267 321 200 223 206 197 202 216 214 225 225 226 217 213 198 200 199 201 195 179 174 172 172 165 168 171 174 174 175 171 168 166 165 162 163 163 163 164 168 169 153 145 137 145 148 146 142 143 140 148 137 135 138 140 135 131 129 133 148 146 203
260 270 276 247 232 256 265 271 258 220 268 279 244 261 288 341 1 338 314 138 220 251 279 31 135 193 300 267 222 196 184 205 228 232 233 227 227 226 222 206 204 202 194 184 180 180 177 171 170 171 175 175 175 169 170 171 169 167 164 163 164 163 164 169 161 154 151 147 148 145 140 141 144 148 147 153 152 144 138 134 142 138 153 165 161 148
237 296 274 287 297 262 246 218 257 97 139 219 276 215 301 74 57 32 37 337 250 354 302 318 6 24 265 282 47 124 173 224 227 228 231 227 225 233 230 218 210 205 196 183 181 179 178 172 170 167 172 175 168 170 172 173 170 169 165 162 161 162 161 166 157 156 154 149 150 145 138 134 136 139 142 147 150 142 140 135 143 142 164 174 179 160
288 247 262 221 181 246 238 260 224 181 313 267 252 56 42 58 60 67 354 344 317 36 281 285 150 188 280 297 106 162 189 211 220 224 227 218 216 225 230 228 208 193 198 201 191 177 170 168 167 172 168 167 174 173 172 167 162 166 165 162 160 162 162 160 156 156 154 148 145 140 140 135 139 140 141 148 149 143 150 149 154 158 169 182 162 73
239 274 249 238 214 210 209 234 227 188 253 243 55 39 358 11 4 351 59 97 26 336 259 263 132 167 278 258 184 149 207 207 215 228 239 234 236 236 234 231 212 183 191 193 190 183 158 160 165 164 171 172 169 168 167 165 163 162 166 163 162 161 158 159 155 155 153 148 143 140 143 142 144 148 148 146 144 144 155 157 163 166 185 182 132 117
300 302 312 245 196 274 209 275 275 189 173 93 65 80 21 340 1 21 336 36 219 280 263 269 217 154 180 283 244 223 217 206 195 214 219 218 222 226 228 230 221 189 190 186 177 170 156 147 164 167 171 168 165 161 162 160 160 158 164 165 160 158 156 156 150 146 144 135 132 137 143 145 148 151 153 153 157 167 164 165 168 177 161 144 99 110
312 278 248 289 260 255 281 289 292 327 356 12 45 41 69 279 31 319 3 338 230 220 255 268 95 39 345 231 235 236 239 202 206 213 212 216 221 223 226 224 220 199 177 171 177 168 170 168 164 172 171 163 161 162 160 158 160 160 160 166 160 159 155 150 144 146 127 104 138 147 147 147 151 153 154 157 162 168 165 168 169 161 166 132 120 136
278 270 289 254 293 215 184 219 279 317 289 218 257 129 84 188 91 258 274 229 304 288 269 305 69 111 256 301 331 318 258 201 198 212 216 217 218 218 218 220 216 200 185 177 175 178 178 175 172 169 169 163 155 155 156 154 155 160 161 162 159 158 154 145 118 92 99 159 151 146 146 152 156 160 159 161 161 165 166 171 165 161 160 156 151 134
307 323 294 149 273 239 177 206 190 184 186 213 155 149 172 148 155 217 225 261 243 239 294 324 68 252 64 251 322 329 316 288 218 215 228 239 240 246 251 242 217 199 195 175 176 182 181 180 172 169 162 151 147 151 151 147 148 157 159 157 155 154 129 89 118 149 164 174 150 149 155 151 160 165 161 162 158 153 148 145 138 148 152 140 146 139
218 224 255 231 230 205 201 217 176 117 235 258 168 80 85 226 151 238 206 188 266 323 3 1 132 203 176 257 323 349 352 23 25 8 5 315 319 337 304 238 216 208 188 179 182 184 185 177 165 147 139 143 144 140 139 155 160 159 161 159 159 156 137 144 152 175 174 160 150 152 150 148 165 174 156 151 152 146 136 138 135 142 139 138 137 143
256 258 257 282 310 204 230 162 190 138 190 252 114 161 210 185 137 64 337 275 242 47 356 254 51 1 319 7 356 357 5 358 4 8 12 351 340 344 255 247 229 207 183 178 184 190 176 148 138 143 148 143 125 139 161 168 166 160 163 168 166 166 163 162 170 175 169 155 151 152 153 164 167 165 158 162 156 134 136 135 136 136 137 134 141 150
167 262 277 331 305 299 216 180 169 179 150 81 140 241 252 91 113 134 217 320 58 124 131 19 119 259 23 209 327 5 349 329 352 354 354 12 10 14 336 300 262 216 196 179 135 73 86 105 138 147 120 115 121 125 144 158 165 170 173 174 168 171 164 164 166 164 159 149 147 146 151 164 168 161 159 136 115 141 141 135 129 124 126 146 155 153
167 289 295 246 236 294 360 103 44 331 29 166 213 204 103 307 327 314 85 335 3 2 162 317 299 263 172 230 353 326 290 289 334 348 16 10 10 352 345 344 8 53 63 67 75 90 110 130 125 91 84 88 87 81 109 155 173 182 189 180 174 171 162 156 158 150 136 131 142 155 163 158 154 136 96 96 138 175 141 136 137 138 146 145 140 129
88 215 293 304 83 305 20 68 201 258 322 350 13 335 225 118 171 87 203 180 123 249 95 247 26 225 217 213 211 233 227 235 313 14 2 0 359 348 352 12 23 47 67 79 92 118 98 67 60 68 82 91 90 96 121 180 185 186 190 188 175 163 155 153 152 146 141 147 150 142 120 106 112 115 132 153 163 164 142 140 140 142 141 150 140 137
211 168 246 280 316 40 16 294 233 193 201 267 310 297 332 261 214 138 312 187 171 174 172 169 274 281 268 221 184 259 316 330 252 139 334 320 344 33 37 33 42 51 74 95 96 66 62 63 67 75 86 96 100 130 163 207 211 192 187 191 164 168 166 159 147 141 139 142 148 143 141 127 127 136 150 164 154 146 143 141 145 150 143 117 134 144
142 74 242 313 6 28 228 243 209 190 190 184 177 213 200 202 246 247 273 330 110 125 186 113 232 269 271 49 44 272 254 91 35 111 124 312 29 44 51 55 67 78 94 104 95 85 85 78 65 59 67 87 116 126 162 221 221 208 193 131 151 157 191 174 151 137 136 146 154 158 132 131 135 141 144 145 156 146 144 143 146 142 121 138 165 147
158 169 144 296 225 256 242 262 240 234 232 197 166 223 190 158 106 115 240 277 351 51 111 137 121 277 237 222 112 117 71 58 113 146 137 69 65 70 73 75 72 75 76 75 79 86 100 107 113 113 103 81 131 151 174 239 287 26 53 69 61 30 343 341 116 129 166 164 164 149 137 138 145 146 157 169 149 142 141 144 141 135 133 131 124 131
74 77 24 304 307 304 316 298 301 348 191 36 324 305 100 185 184 171 196 189 142 3 53 14 67 265 287 316 59 93 91 82 136 150 123 71 65 69 77 83 92 93 95 101 104 102 107 117 125 123 112 141 164 158 173 201 162 107 78 67 61 59 35 104 157 143 148 133 119 123 130 138 145 154 177 150 142 140 143 140 134 121 120 128 131 128
63 293 113 14 0 335 341 350 358 335 30 17 307 263 200 202 209 200 93 81 93 244 181 129 162 267 275 346 80 91 79 81 128 242 100 101 63 71 97 108 108 106 97 88 87 97 111 125 125 128 140 181 166 124 78 76 153 97 88 93 91 71 66 46 84 99 96 111 117 127 134 132 147 164 156 141 135 139 138 133 120 121 126 126 127 129
100 201 88 94 36 320 311 335 293 307 298 291 284 285 274 225 184 129 246 6 86 333 83 110 173 256 272 312 88 73 111 88 94 85 46 57 70 60 107 104 84 82 94 93 84 79 98 127 122 124 165 165 97 111 154 162 114 104 104 100 98 91 84 83 80 93 115 118 126 136 133 142 161 157 143 136 136 137 137 126 121 128 129 132 138 137
145 85 110 150 150 199 217 228 259 113 327 330 291 280 275 257 228 138 110 86 136 173 48 251 157 167 183 184 263 226 158 152 149 124 117 114 276 294 17 79 88 96 108 112 110 103 112 101 109 133 171 112 111 133 170 127 112 114 116 112 104 103 102 109 104 105 118 126 126 129 121 151 157 143 136 135 136 135 127 124 130 131 135 141 144 148
73 198 239 137 182 210 210 217 256 289 277 280 285 273 274 267 232 115 124 156 158 97 20 269 198 127 223 260 238 201 130 151 147 152 160 236 242 229 43 71 87 94 104 116 122 125 118 113 119 133 142 113 119 117 110 67 108 113 124 121 117 119 120 120 125 126 124 131 131 135 160 154 138 135 129 131 132 129 124 128 134 137 142 149 155 161
140 183 254 165 249 226 222 240 264 280 260 287 308 317 332 24 110 93 124 155 129 124 173 205 130 128 223 223 191 183 166 170 176 188 203 209 145 96 78 56 82 103 118 122 128 133 138 142 142 132 116 120 133 136 144 132 115 110 110 115 119 125 125 130 128 128 127 129 144 163 139 124 125 125 128 129 125 121 129 135 140 144 157 168 162 126
78 270 230 180 266 305 307 307 317 333 320 324 304 328 112 91 90 116 106 147 139 120 129 130 135 153 183 195 186 178 172 155 171 115 113 173 193 154 121 117 151 129 117 116 124 130 138 146 151 149 148 156 154 135 138 128 123 120 121 119 127 124 124 122 127 130 131 135 136 136 126 121 121 125 126 128 124 131 135 138 144 152 160 165 131 119
73 300 313 357 25 308 306 312 320 327 340 317 355 359 88 95 102 113 116 98 87 88 127 141 125 136 287 166 153 115 101 84 109 176 199 208 186 173 159 178 155 105 112 112 128 136 142 147 150 152 153 156 165 151 141 136 125 122 117 121 125 123 125 127 129 130 134 137 134 127 119 118 122 121 126 127 127 134 139 144 149 154 151 128 117 108
57 308 10 27 25 313 301 320 312 338 339 316 322 175 112 105 96 106 113 167 134 144 135 101 99 176 235 185 117 143 134 143 179 205 189 221 218 197 184 188 186 124 118 120 133 138 144 149 156 161 156 154 150 148 144 139 136 128 130 129 126 123 122 122 127 126 128 132 128 121 120 120 119 116 120 125 135 146 149 151 150 148 143 129 124 109
2 34 19 343 26 276 280 342 331 354 8 2 344 148 150 116 128 129 108 149 152 144 128 149 209 200 173 163 137 197 176 199 245 219 211 271 266 227 224 220 201 157 136 133 144 145 153 157 159 155 145 144 150 155 158 147 143 144 141 135 131 125 121 125 125 121 124 134 130 123 121 123 119 119 121 131 140 146 148 146 139 130 130 143 143 114
27 44 351 224 13 267 310 333 352 32 30 254 239 210 160 140 143 132 152 156 151 138 189 180 166 152 142 146 157 178 184 205 206 230 204 180 194 228 245 237 221 188 156 147 148 146 146 145 147 147 146 148 149 153 155 157 145 142 137 131 131 125 129 128 125 123 128 131 132 130 126 125 125 123 125 126 131 136 142 141 148 150 143 132 112 120
347 15 335 213 6 298 320 0 32 10 242 244 344 6 117 105 96 97 76 94 141 87 98 90 104 149 164 157 158 170 194 235 215 192 182 178 187 193 201 196 202 186 176 168 149 145 147 147 142 139 140 146 151 149 145 142 134 127 127 132 127 126 128 130 126 124 130 130 131 129 130 130 131 130 126 122 121 128 137 138 135 126 133 129 136 145
322 346 319 356 150 12 30 23 59 248 246 297 329 118 103 96 100 83 48 7 350 115 117 107 119 143 132 120 126 152 164 176 84 61 178 188 189 200 188 199 201 187 182 180 159 152 152 156 156 154 148 147 148 148 149 145 142 131 133 133 126 127 130 130 126 128 128 130 137 138 140 137 134 133 128 120 116 118 131 138 144 144 137 109 105 117
189 91 80 301 239 211 221 271 232 279 327 306 253 192 183 159 163 126 125 273 310 152 120 127 121 118 109 122 139 145 132 63 46 342 252 178 207 216 208 211 184 197 181 164 154 151 153 148 147 146 139 145 151 148 150 145 139 133 131 128 125 127 132 129 129 135 136 137 140 139 142 139 136 136 134 126 118 121 129 133 130 140 114 94 97 111
155 232 218 15 290 128 61 355 353 16 289 278 249 263 288 154 134 138 104 29 339 150 138 131 138 140 134 147 155 167 125 60 34 281 265 188 173 146 86 141 152 144 137 124 114 126 134 137 135 140 142 146 150 150 146 146 141 137 132 129 130 130 133 133 136 140 137 141 144 141 143 142 137 136 132 129 129 135 148 129 134 152 121 120 115 95
224 178 163 189 237 335 7 268 237 257 252 223 268 279 143 126 123 96 71 75 270 222 169 132 142 152 154 159 178 154 84 145 248 239 262 151 141 127 107 95 131 137 139 142 144 142 142 141 142 141 141 143 147 154 149 145 141 137 136 135 138 136 137 139 142 141 142 145 145 142 139 137 134 135 137 140 144 134 136 147 151 153 102 118 119 155
272 245 124 157 243 212 162 222 259 203 232 288 259 269 188 139 90 63 70 249 252 225 188 141 148 160 170 170 154 143 146 194 234 242 188 147 136 119 133 132 126 121 115 116 123 134 134 132 132 139 146 153 155 154 148 144 142 141 139 140 138 138 143 148 148 141 133 138 140 140 139 141 139 142 144 151 144 139 147 161 128 138 122 121 127 136
253 290 148 220 215 234 193 241 303 291 273 244 252 283 197 143 71 90 177 225 215 191 197 157 157 161 161 165 170 171 220 190 196 152 132 128 107 91 86 99 117 127 131 130 133 133 133 138 144 149 153 149 152 153 149 144 142 144 143 141 140 146 149 148 139 134 132 135 137 140 145 145 144 149 151 152 150 161 143 144 164 165 135 134 106 76
274 209 293 129 194 224 198 183 221 231 235 202 277 254 237 51 69 146 232 190 155 178 186 165 153 171 162 176 185 184 201 163 114 118 131 130 120 117 117 117 109 99 102 121 131 134 134 137 137 138 137 145 151 154 150 144 142 143 141 140 148 152 145 140 139 135 132 136 141 145 150 152 152 152 156 151 136 143 158 178 173 181 169 146 125 108
220 190 217 199 208 104 126 195 92 182 270 200 206 2 19 101 216 204 147 130 153 164 158 175 158 178 158 176 181 143 126 116 125 136 136 133 128 130 132 131 133 135 136 135 137 143 142 142 147 151 148 152 154 154 153 146 143 146 146 148 156 148 143 142 141 141 140 143 144 149 154 159 153 160 159 159 148 151 166 176 169 184 179 156 135 134
195 176 267 269 168 164 174 199 199 213 218 234 127 156 238 169 164 155 129 124 162 145 159 151 170 169 166 143 143 122 128 125 111 129 129 130 123 118 120 123 125 129 132 142 146 151 148 143 146 143 148 152 156 158 156 153 147 151 152 157 153 143 142 144 145 142 145 151 151 148 157 161 160 160 161 169 152 149 155 171 173 160 167 154 147 145
238 234 191 171 243 128 199 211 240 220 224 171 127 142 118 80 103 137 126 141 151 179 148 141 165 176 165 144 134 133 134 150 149 152 146 155 147 144 144 150 152 150 150 152 157 154 153 151 152 143 146 155 160 160 159 160 152 153 156 161 146 146 149 149 145 147 153 158 153 154 165 160 164 168 161 171 156 158 160 176 166 161 173 140 134 136
279 271 303 53 329 256 105 180 241 22 68 65 70 122 130 126 111 123 127 126 181 164 161 158 175 169 160 141 127 136 145 155 141 149 140 144 145 142 136 140 146 146 146 147 151 157 152 151 150 147 150 158 161 159 162 162 159 158 161 151 151 152 152 149 149 155 160 156 156 161 158 153 168 176 173 168 167 167 172 170 181 177 183 157 162 165
302 328 343 131 229 73 92 324 72 139 98 104 100 61 76 109 135 137 135 147 165 157 157 162 163 164 155 150 143 145 148 152 148 154 148 140 146 148 155 158 160 161 160 165 166 154 151 154 156 160 159 158 161 162 164 158 158 156 148 153 154 154 154 153 158 158 157 163 161 158 154 155 172 178 174 168 169 172 172 171 170 182 176 178 176 188
307 31 341 311 14 114 177 49 56 49 73 102 125 122 120 121 118 105 122 146 140 162 160 164 143 132 136 137 147 140 150 150 144 154 155 154 154 159 160 160 159 159 158 158 160 159 155 160 162 164 162 162 163 161 166 163 160 158 157 154 157 156 156 161 164 164 170 166 153 155 165 166 181 168 171 182 176 182 189 183 178 180 193 184 191 190
272 330 291 249 56 21 53 74 95 67 51 53 115 131 137 134 124 116 116 119 127 134 148 151 155 156 159 144 139 136 139 158 157 160 157 148 153 162 167 162 161 154 147 148 153 159 164 163 165 164 161 162 163 161 164 165 166 167 163 158 159 158 162 168 171 168 164 152 163 180 165 165 177 163 174 189 197 203 192 186 192 203 213 218 191 193
274 286 287 36 106 136 164 189 136 110 174 233 204 161 137 156 117 115 108 109 121 134 144 147 141 126 129 145 150 146 145 154 161 160 155 154 157 159 156 157 160 152 155 153 143 155 158 163 161 162 160 163 162 162 166 165 167 175 172 158 159 160 166 169 172 172 167 168 173 160 169 185 174 169 184 188 198 210 245 235 211 200 193 217 216 211
311 304 339 281 168 213 233 205 215 147 144 180 181 188 140 130 113 119 135 148 157 153 151 141 136 119 122 144 151 139 142 148 162 152 139 141 150 150 150 150 157 160 155 149 143 148 154 161 160 153 154 158 161 167 167 171 172 181 178 162 165 167 168 167 171 170 174 176 174 174 180 190 186 177 185 193 194 202 215 238 259 240 238 234 221 212